Flag for China Weather past 2 weeks in Chengdu, Sichuan, China

Now
73 °F

Fog.


Feels Like: 74 °F
Forecast: 68 / 79 °F
Wind: 3 mph from North

Location: Chengdu Airport

Current Time: Sep 21, 2014 at 8:25:16 PM

Latest Report: Sep 21, 2014 at 7:00 PM


Visibility: 3 mi

Pressure: 29.83 "Hg

Humidity: 78%

Dew point: 66 °F

Location of ChengduLocation

Historic Weather in Chengdu — Graph

°F

Chengdu temperature yesterday

Maximum temperature yesterday: 79 °F (at 12:00 PM)
Minimum temperature yesterday: 70 °F (at 2:00 AM)
Average temperature yesterday: 74 °F

Past Weeks' High & Low Weather Summary

 TemperatureHumidityPressure
High88 °F (Sep 10, 2:00 PM)94% (Sep 7, 6:00 AM)30.07 "Hg (Sep 7, 6:00 AM)
Low66 °F (Sep 16, 2:00 PM)33% (Sep 12, 4:00 PM)29.59 "Hg (Sep 11, 3:00 PM)
Average75 °F76%29.83 "Hg
* Reported Sep 6 7:00 PM — Sep 21 7:00 PM, Chengdu, Weather by CustomWeather, © 2014

Note: Actual official high and low records may vary slightly from our data, if they occured in-between our weather recording intervals... More about our weather records

Advertising

Chengdu weather history for previous 24 hours

 ConditionsComfort  
Time TempWeatherWind HumidityBarometerVisibility
7:00 PM
Sep 21
73 °FFog.3 mph78%29.83 "Hg3 mi
6:00 PM73 °FFog.3 mph78%29.80 "Hg3 mi
5:00 PM75 °FFog.3 mph74%29.80 "Hg3 mi
4:00 PM75 °FFog.3 mph78%29.83 "Hg3 mi
3:00 PM75 °FScattered clouds.6 mph74%29.83 "Hg4 mi
2:00 PM75 °FScattered clouds.6 mph74%29.89 "Hg4 mi
1:00 PM73 °FFog.3 mph78%29.89 "Hg2 mi
12:00 PM72 °FFog.3 mph88%29.92 "Hg2 mi
11:00 AM72 °FFog.3 mph83%29.92 "Hg1 mi
10:00 AM72 °FFog.3 mph83%29.92 "Hg1 mi
9:00 AM72 °FFog.3 mph88%29.92 "Hg1 mi
8:00 AM72 °FFog.3 mph88%29.89 "Hg1 mi
7:00 AM72 °FSprinkles. Fog.1 mph83%29.89 "Hg1 mi
6:00 AM72 °FFog.1 mph83%29.86 "Hg2 mi
5:00 AM72 °FFog.1 mph83%29.86 "Hg3 mi
4:00 AM72 °FFog.1 mph83%29.86 "Hg3 mi
3:00 AM72 °FFog.No wind83%29.86 "Hg3 mi
2:00 AM73 °FFog.1 mph78%29.89 "Hg3 mi
1:00 AM72 °FFog.No wind83%29.89 "Hg3 mi
9:00 PM
Sep 20
73 °FFog.3 mph83%29.86 "Hg3 mi
8:00 PM73 °FFog.1 mph83%29.83 "Hg3 mi
Weather by CustomWeather, © 2014

See weather overviewHow to use our weather pages